| time (UTC) | temp F | wind direction | speed MPH | gust MPH | rain 1hr in | rain 24hr in | rain mn in | humidity % | barometer mb |
| 20260906220002 | 80 | 260 | 0.0 | 0.0 | 0.00 | 0.00 | 0.00 | 74 | 1014.1 |
| 20260906214502 | 80 | 150 | 0.0 | 1.0 | 0.00 | 0.00 | 0.00 | 69 | 1014.3 |
| 20260906213001 | 81 | 252 | 0.0 | 1.0 | 0.00 | 0.00 | 0.00 | 70 | 1014.3 |
| 20260906211606 | 81 | 231 | 0.0 | 1.0 | 0.00 | 0.00 | 0.00 | 71 | 1014.1 |
| 20260906204629 | 81 | 252 | 0.0 | 1.0 | 0.00 | 0.00 | 0.00 | 73 | 1014.1 |
| 20260906203059 | 82 | 301 | 0.0 | 2.0 | 0.00 | 0.00 | 0.00 | 70 | 1014.4 |
| 20260906201629 | 82 | 195 | 0.0 | 1.0 | 0.00 | 0.00 | 0.00 | 73 | 1014.3 |
| 20260906200057 | 81 | 315 | 0.0 | 0.0 | 0.00 | 0.00 | 0.00 | 76 | 1014.3 |
| 20260906194603 | 81 | 91 | 0.0 | 1.0 | 0.00 | 0.00 | 0.00 | 73 | 1014.3 |
| 20260906193100 | 81 | 233 | 0.0 | 1.0 | 0.00 | 0.00 | 0.00 | 74 | 1014.4 |
| 20260906191558 | 82 | 270 | 0.0 | 1.0 | 0.00 | 0.00 | 0.00 | 71 | 1014.4 |
| 20260906190052 | 82 | 254 | 0.0 | 2.0 | 0.00 | 0.00 | 0.00 | 73 | 1014.5 |
| 20260906184550 | 81 | 212 | 0.0 | 1.0 | 0.00 | 0.00 | 0.00 | 76 | 1014.5 |
| 20260906183056 | 81 | 41 | 0.0 | 1.0 | 0.00 | 0.00 | 0.00 | 77 | 1014.6 |
| 20260906181550 | 81 | 224 | 0.0 | 2.0 | 0.00 | 0.00 | 0.00 | 76 | 1014.6 |
| 20260906180045 | 80 | 240 | 0.0 | 1.0 | 0.00 | 0.00 | 0.00 | 78 | 1014.7 |
| 20260906174549 | 79 | 259 | 0.0 | 2.0 | 0.00 | 0.00 | 0.00 | 79 | 1014.9 |
| 20260906173041 | 79 | 271 | 0.0 | 1.0 | 0.00 | 0.00 | 0.00 | 82 | 1015.0 |
| 20260906171542 | 79 | 271 | 0.0 | 1.0 | 0.00 | 0.00 | 0.00 | 82 | 1015.1 |
| 20260906170037 | 78 | 77 | 0.0 | 2.0 | 0.00 | 0.00 | 0.00 | 84 | 1015.1 |
| 20260906164536 | 78 | 257 | 0.0 | 1.0 | 0.00 | 0.00 | 0.00 | 85 | 1015.2 |
| 20260906163046 | 78 | 264 | 0.0 | 1.0 | 0.00 | 0.00 | 0.00 | 85 | 1015.6 |
| 20260906161533 | 76 | 78 | 0.0 | 2.0 | 0.00 | 0.00 | 0.00 | 88 | 1015.6 |
| 20260906160029 | 74 | 46 | 0.0 | 0.0 | 0.00 | 0.00 | 0.00 | 91 | 1015.8 |
| 20260906154528 | 73 | 339 | 0.0 | 0.0 | 0.00 | 0.00 | 0.00 | 90 | 1015.8 |
| 20260906153027 | 73 | 344 | 0.0 | 1.0 | 0.00 | 0.00 | 0.00 | 91 | 1015.6 |
| 20260906151525 | 73 | 330 | 0.0 | 1.0 | 0.00 | 0.00 | 0.00 | 91 | 1015.8 |
| 20260906150028 | 73 | 273 | 0.0 | 1.0 | 0.00 | 0.00 | 0.00 | 91 | 1015.5 |
| 20260906144525 | 73 | 166 | 0.0 | 0.0 | 0.00 | 0.00 | 0.00 | 91 | 1015.4 |
| 20260906143024 | 73 | 263 | 0.0 | 1.0 | 0.00 | 0.00 | 0.00 | 91 | 1015.5 |
| 20260906141520 | 72 | 249 | 0.0 | 1.0 | 0.00 | 0.00 | 0.00 | 91 | 1015.2 |
| 20260906140021 | 72 | 242 | 0.0 | 0.0 | 0.00 | 0.00 | 0.00 | 91 | 1015.2 |
| 20260906134518 | 72 | 240 | 0.0 | 0.0 | 0.00 | 0.00 | 0.00 | 91 | 1015.0 |
| 20260906133016 | 72 | 263 | 0.0 | 1.0 | 0.00 | 0.00 | 0.00 | 91 | 1015.0 |
| 20260906131616 | 72 | 270 | 0.0 | 1.0 | 0.00 | 0.00 | 0.00 | 91 | 1014.9 |
| 20260906130017 | 72 | 264 | 0.0 | 2.0 | 0.00 | 0.01 | 0.00 | 91 | 1014.9 |
| 20260906124519 | 72 | 249 | 0.0 | 1.0 | 0.00 | 0.01 | 0.00 | 91 | 1014.7 |
| 20260906123030 | 72 | 238 | 0.0 | 1.0 | 0.00 | 0.01 | 0.00 | 91 | 1014.6 |
| 20260906121509 | 72 | 249 | 0.0 | 1.0 | 0.00 | 0.01 | 0.00 | 91 | 1014.3 |
| 20260906120007 | 72 | 275 | 0.0 | 1.0 | 0.00 | 0.33 | 0.00 | 91 | 1014.0 |
| 20260906114504 | 72 | 294 | 0.0 | 1.0 | 0.00 | 0.33 | 0.00 | 91 | 1013.7 |
| 20260906113003 | 72 | 75 | 0.0 | 1.0 | 0.00 | 0.33 | 0.00 | 91 | 1013.5 |
| 20260906111501 | 72 | 73 | 0.0 | 1.0 | 0.00 | 0.33 | 0.00 | 92 | 1013.4 |
| 20260906110001 | 72 | 232 | 0.0 | 1.0 | 0.00 | 0.33 | 0.00 | 92 | 1013.4 |
| 20260906104606 | 72 | 94 | 0.0 | 1.0 | 0.00 | 0.33 | 0.00 | 92 | 1013.3 |
| 20260906103058 | 72 | 94 | 0.0 | 0.0 | 0.00 | 0.33 | 0.00 | 92 | 1013.2 |
| 20260906101557 | 72 | 94 | 0.0 | 0.0 | 0.00 | 0.33 | 0.00 | 92 | 1013.0 |
| 20260906100056 | 72 | 94 | 0.0 | 0.0 | 0.00 | 1.00 | 0.00 | 92 | 1012.8 |
| 20260906094555 | 71 | 93 | 0.0 | 0.0 | 0.00 | 1.00 | 0.00 | 92 | 1012.7 |
| 20260906093102 | 71 | 93 | 0.0 | 0.0 | 0.00 | 1.00 | 0.00 | 92 | 1012.6 |
| 20260906091555 | 71 | 94 | 0.0 | 0.0 | 0.00 | 1.00 | 0.00 | 92 | 1012.5 |
| 20260906090106 | 71 | 93 | 0.0 | 0.0 | 0.00 | 1.00 | 0.00 | 91 | 1012.5 |
| 20260906084601 | 72 | 93 | 0.0 | 0.0 | 0.00 | 1.00 | 0.00 | 91 | 1012.6 |
| 20260906083051 | 72 | 93 | 0.0 | 0.0 | 0.00 | 1.00 | 0.00 | 91 | 1012.6 |
| 20260906081554 | 72 | 93 | 0.0 | 0.0 | 0.00 | 1.00 | 0.00 | 91 | 1012.5 |
| 20260906080054 | 72 | 94 | 0.0 | 0.0 | 0.00 | 1.00 | 0.00 | 91 | 1012.5 |
| 20260906074549 | 72 | 93 | 0.0 | 0.0 | 0.00 | 1.00 | 0.00 | 91 | 1012.5 |
| 20260906073056 | 72 | 94 | 0.0 | 0.0 | 0.00 | 1.00 | 0.00 | 91 | 1012.4 |
| 20260906071545 | 72 | 93 | 0.0 | 0.0 | 0.00 | 1.00 | 0.00 | 91 | 1012.4 |
| 20260906070055 | 73 | 93 | 0.0 | 0.0 | 0.00 | 1.00 | 0.00 | 91 | 1012.4 |
| 20260906064543 | 73 | 93 | 0.0 | 0.0 | 0.00 | 1.00 | 0.00 | 91 | 1012.4 |
| 20260906063042 | 73 | 94 | 0.0 | 0.0 | 0.00 | 1.00 | 0.00 | 91 | 1012.4 |
| 20260906061552 | 73 | 93 | 0.0 | 0.0 | 0.00 | 1.00 | 0.00 | 91 | 1012.9 |
| 20260906060039 | 74 | 93 | 0.0 | 0.0 | 0.00 | 1.00 | 0.00 | 91 | 1013.0 |
| 20260906054538 | 74 | 93 | 0.0 | 0.0 | 0.00 | 1.00 | 0.00 | 91 | 1012.8 |
| 20260906053038 | 74 | 94 | 0.0 | 0.0 | 0.00 | 1.00 | 0.00 | 91 | 1012.7 |
| 20260906051533 | 74 | 94 | 0.0 | 0.0 | 0.00 | 1.00 | 0.00 | 91 | 1012.7 |
| 20260906050034 | 74 | 93 | 0.0 | 0.0 | 0.00 | 1.00 | 0.00 | 91 | 1012.8 |
| 20260906044530 | 75 | 93 | 0.0 | 0.0 | 0.00 | 1.00 | 0.00 | 91 | 1012.8 |
| 20260906043038 | 75 | 85 | 0.0 | 1.0 | 0.00 | 1.00 | 0.00 | 91 | 1012.6 |
| 20260906041524 | 75 | 70 | 0.0 | 0.0 | 0.00 | 1.00 | 0.00 | 91 | 1012.2 |
| 20260906040025 | 75 | 70 | 0.0 | 0.0 | 0.00 | 1.00 | 1.00 | 91 | 1012.3 |
| 20260906034525 | 75 | 70 | 0.0 | 0.0 | 0.00 | 1.00 | 1.00 | 91 | 1012.3 |
| 20260906033021 | 75 | 71 | 0.0 | 0.0 | 0.00 | 1.00 | 1.00 | 91 | 1012.1 |
| 20260906031521 | 75 | 70 | 0.0 | 0.0 | 0.00 | 1.00 | 1.00 | 91 | 1012.1 |
| 20260906030021 | 75 | 71 | 0.0 | 1.0 | 0.00 | 1.00 | 1.00 | 91 | 1012.1 |
| 20260906024519 | 75 | 348 | 0.0 | 0.0 | 0.00 | 1.00 | 1.00 | 91 | 1011.9 |
| 20260906023018 | 76 | 348 | 0.0 | 0.0 | 0.00 | 1.00 | 1.00 | 91 | 1012.0 |
| 20260906021518 | 76 | 348 | 0.0 | 0.0 | 0.00 | 1.00 | 1.00 | 91 | 1011.8 |
| 20260906020117 | 77 | 349 | 0.0 | 0.0 | 0.00 | 1.00 | 1.00 | 91 | 1011.7 |
| 20260906014525 | 77 | 349 | 0.0 | 0.0 | 0.00 | 1.00 | 1.00 | 91 | 1011.5 |
| 20260906013016 | 78 | 348 | 0.0 | 0.0 | 0.00 | 1.00 | 1.00 | 90 | 1011.7 |
| 20260906011515 | 78 | 348 | 0.0 | 0.0 | 0.00 | 1.00 | 1.00 | 90 | 1011.1 |
| 20260906010016 | 79 | 348 | 0.0 | 0.0 | 0.00 | 1.00 | 1.00 | 90 | 1011.1 |
| 20260906004514 | 80 | 348 | 0.0 | 0.0 | 0.00 | 1.00 | 1.00 | 90 | 1011.0 |
| 20260906003013 | 80 | 349 | 0.0 | 0.0 | 0.00 | 1.00 | 1.00 | 90 | 1011.1 |
| 20260906001512 | 81 | 348 | 0.0 | 0.0 | 0.00 | 1.00 | 1.00 | 89 | 1011.2 |
| 20260906000012 | 81 | 349 | 0.0 | 0.0 | 0.00 | 1.00 | 1.00 | 89 | 1011.2 |
| 20260905234511 | 82 | 349 | 0.0 | 0.0 | 0.00 | 1.00 | 1.00 | 89 | 1011.5 |
| 20260905233013 | 83 | 348 | 0.0 | 0.0 | 0.00 | 1.00 | 1.00 | 88 | 1011.6 |
| 20260905231514 | 83 | 349 | 0.0 | 0.0 | 0.00 | 1.00 | 1.00 | 87 | 1011.7 |
| 20260905230014 | 84 | 15 | 0.0 | 0.0 | 0.00 | 1.00 | 1.00 | 85 | 1011.3 |
| 20260905224510 | 85 | 15 | 0.0 | 0.0 | 0.00 | 1.00 | 1.00 | 84 | 1011.3 |
| 20260905223009 | 86 | 15 | 0.0 | 0.0 | 0.00 | 1.00 | 1.00 | 83 | 1010.9 |
| 20260905221508 | 87 | 15 | 0.0 | 0.0 | 0.00 | 1.00 | 1.00 | 82 | 1011.1 |